[[{"header":{"parameterUnit":"m.s-1","parameterCategory":1,"la1":30.2991,"la2":30.254,"lo1":-89.0895,"lo2":-89.0444,"dy":0.0017,"dx":0.0017,"nx":28,"ny":28,"refTime":"2025-06-19T21:00:00:Z","depth":0,"parameterNumber":2,"parameterNumberName":"U-component_of_WINDS"},"data":[0,0,0,0,0,0,0,0,0,0,0,0,0,0,0,0,0,0,0,0,0,0,0,0,0,0,0,0,0,0,0,0,0,0,0,0,0,0,0,0,0,0,0,0,0,0,0,0,0,0,0,0,0,0,0,0,0,0,0.9752,0.9752,0,0.9803,0.9803,0.9804,0.9778,0.9776,0.9775,0.9773,0.9834,0.9836,0.9839,0,0,0,0,0,0,0,0,0,0,0,0,0,0.9636,0.9639,0.9751,0.9752,0.9753,0.9803,0.9804,0.9804,0.9778,0.9776,0.9774,0.9773,0.9833,0.9836,0.9839,0,0,0,0,0,0,0,0,0,0,0,0,0,0.9687,0.9639,0.9751,0.9745,0.9745,0.9803,0.9804,0.9804,0.9778,0.9776,0.9774,0.9772,0.9831,0.9836,0.984,0.9908,0,0,0.9853,0.9855,0,0,0,0,0,0,0,0,0.9684,0.9691,0.9746,0.9746,0.9746,0.9781,0.9785,0.984,0.9779,0.9766,0.9773,0.9771,0.9818,0.9824,0.9838,0.9911,0.9914,0.9854,0.9856,0.9858,0.9859,0,0,0,0,0,0,0,0.9681,0.9689,0.9772,0.9747,0.9747,0.9742,0.9747,0.9795,0.9804,0.9767,0.9765,0.9771,0.9818,0.9834,0.9839,0.9915,0.9853,0.9857,0.986,0.9862,1.0046,1.0048,0,0,0,0,0,0,0.9677,0.9686,0.977,0.9774,0.9709,0.9746,0.9751,0.9772,0.9803,0.9805,0.9773,0.977,0.9828,0.9834,0.9841,0.9922,0.9858,0.9862,0.9865,1.0043,1.0046,1.0049,0,0,0,0,0,0,0.9674,0.9684,0.9768,0.9729,0.974,0.975,0.9774,0.9774,0.979,0.9807,0.9809,0.9787,0.9826,0.9835,0.9891,0.9924,0.9864,0.9868,1.0041,1.0044,1.0047,1.0086,0,0,0,0,0,0,0.9671,0.9684,0.9708,0.973,0.9742,0.9815,0.9776,0.9777,0.9797,0.9793,0.9821,0.9824,0.9825,0.9885,0.9895,0.9929,0.9871,1.0038,1.0042,1.0046,1.0082,1.009,1.0097,0,0,0,0,0,0.9667,0.9719,0.971,0.972,0.9773,0.9817,0.9824,0.9823,0.98,0.9825,0.9836,0.9823,0.9919,0.9891,0.9902,0.9938,1.0036,1.0041,1.0046,1.0078,1.0088,1.0097,0,0,0,0,0,0,0.9704,0.9722,0.9712,0.9772,0.9793,0.9813,0.9845,0.9834,0.9864,0.986,0.9859,0.9866,0.9923,0.9937,0.9905,1.0005,0.9974,0.9982,0.9994,1.0004,1.0012,1.0008,0.9875,0,0,0,0,0,0.9718,0.9751,0.9766,0.9818,0.9828,0.9835,0.9855,0.9851,0.9874,0.9884,0.9899,0.9923,0.9959,0.9983,1.0016,1.0083,1.0089,1.0114,1.0122,1.0128,1.0135,1.0171,1.0182,1.0065,1.0065,1.0065,0,0,0.975,0.9764,0.9785,0.9825,0.9841,0.9877,0.9843,0.9882,0.9909,0.9891,0.9943,0.9955,0.9983,1.0044,1.0072,1.0057,1.0168,1.0135,1.014,1.0143,1.0177,1.0188,1.0198,1.0069,1.0068,1.0068,0,0,0.9825,0.9838,0.9882,0.9898,0.9922,0.9926,0.9936,0.9958,0.9964,1.0016,1.0002,1.0036,1.0097,1.0117,1.0135,1.0216,1.0205,1.0228,1.0269,1.0304,1.0313,1.0321,1.035,1.036,1.0234,1.0235,1.0235,0,0.9861,0.9912,0.9907,0.9946,0.9965,0.9947,0.9992,1.0009,1.0044,1.0058,1.004,1.0115,1.0133,1.0198,1.0217,1.0233,1.0246,1.0225,1.0312,1.032,1.0328,1.0355,1.0366,1.0237,1.0237,1.0237,1.0236,0,0.9955,0.9991,1.0024,1.0055,1.0077,1.012,1.0122,1.0146,1.0141,1.0147,1.0201,1.0221,1.0258,1.0273,1.027,1.0338,1.0328,1.0311,1.028,1.0341,1.0367,1.0377,1.0241,1.024,1.0239,1.0238,0,0,1.0055,1.0081,1.0093,1.0107,1.0131,1.016,1.0202,1.0235,1.0255,1.028,1.0316,1.0367,1.0351,1.0372,1.0371,1.0402,1.0464,1.0381,1.0382,1.0395,1.0541,1.0553,1.0565,1.0457,1.0459,1.046,1.0538,0,1.0131,1.0202,1.0198,1.0265,1.0298,1.0281,1.0318,1.0338,1.0345,1.0376,1.0385,1.0421,1.0397,1.0409,1.0439,1.045,1.0493,1.0445,1.0492,1.0493,1.0484,1.0578,1.0592,1.0664,1.0548,1.055,1.0551,0,1.0229,1.0254,1.0323,1.0342,1.0356,1.0388,1.0418,1.0447,1.047,1.0473,1.0495,1.0489,1.0533,1.05,1.0561,1.0528,1.0547,1.0556,1.0559,1.0563,1.0526,1.0585,1.0687,1.0698,1.0567,1.0566,1.0565,0,1.0294,1.0345,1.0393,1.0405,1.0428,1.0451,1.0463,1.0483,1.0503,1.053,1.0543,1.0577,1.0595,1.0621,1.0625,1.06,1.0686,1.0654,1.0691,1.0691,1.071,1.0709,1.0816,1.0723,1.0723,1.0723,1.0722,0,1.0379,1.0422,1.0422,1.0452,1.05,1.0496,1.0544,1.0554,1.0572,1.0604,1.0593,1.0624,1.0626,1.0658,1.0662,1.0712,1.0721,1.0725,1.0725,1.0726,1.0725,1.0738,1.0733,1.0726,1.0725,1.0724,1.0724,0,1.0459,1.0461,1.0512,1.0529,1.0534,1.0569,1.0584,1.0613,1.0618,1.0659,1.0669,1.0678,1.0716,1.0721,1.0766,1.0768,1.0828,1.0824,1.082,1.0819,1.0856,1.0852,1.0975,1.0991,1.0888,1.0889,1.089,0,1.0513,1.0545,1.0565,1.0584,1.0596,1.0628,1.0647,1.0645,1.0667,1.0694,1.072,1.0756,1.0784,1.0845,1.0857,1.0891,1.0888,1.0928,1.0893,1.0892,1.0888,1.0885,1.0889,1.0935,1.0936,1.0937,1.0938,0,1.0608,1.0606,1.0634,1.0662,1.0685,1.0708,1.0729,1.0747,1.0748,1.0773,1.0809,1.0831,1.0875,1.0911,1.0944,1.0958,1.0949,1.0949,1.0959,1.096,1.0956,1.0958,1.0838,1.0946,1.0945,1.0945,1.0944,1.0944,1.0676,1.0704,1.0721,1.0752,1.0768,1.0788,1.0815,1.0823,1.0853,1.0886,1.0884,1.0925,1.0947,1.099,1.1006,1.1039,1.1026,1.1041,1.1045,1.1049,1.1052,1.0951,1.1046,1.1045,1.1045,1.1045,1.1045,0,1.077,1.078,1.0808,1.0837,1.0862,1.0848,1.0871,1.0894,1.0928,1.0949,1.0976,1.1018,1.1053,1.1067,1.1101,1.1125,1.1121,1.1134,1.1132,1.1135,1.1062,1.1049,1.1136,1.1136,1.1136,1.1136,1.1136,1.1136,1.0821,1.0867,1.0868,1.0922,1.0932,1.097,1.0984,1.1002,1.1018,1.1065,1.1093,1.1101,1.1119,1.1154,1.1186,1.1189,1.1203,1.1217,1.1219,1.115,1.1141,1.1132,1.112,1.122,1.122,1.1289,1.129,1.129]},{"header":{"parameterUnit":"m.s-1","parameterCategory":1,"la1":30.2991,"la2":30.254,"lo1":-89.0895,"lo2":-89.0444,"dy":0.0017,"dx":0.0017,"nx":28,"ny":28,"refTime":"2025-06-19T21:00:00:Z","depth":0,"parameterNumber":3,"parameterNumberName":"V-component_of_WINDS"},"data":[0,0,0,0,0,0,0,0,0,0,0,0,0,0,0,0,0,0,0,0,0,0,0,0,0,0,0,0,0,0,0,0,0,0,0,0,0,0,0,0,0,0,0,0,0,0,0,0,0,0,0,0,0,0,0,0,0,0,3.6304,3.6304,0,3.6274,3.6274,3.6273,3.6198,3.6196,3.6194,3.6193,3.6161,3.6161,3.6162,0,0,0,0,0,0,0,0,0,0,0,0,0,3.6294,3.6294,3.6304,3.6304,3.6304,3.6274,3.6273,3.6273,3.6198,3.6196,3.6194,3.6192,3.6161,3.6161,3.6162,0,0,0,0,0,0,0,0,0,0,0,0,0,3.6284,3.6295,3.6304,3.6262,3.6258,3.6274,3.6273,3.6273,3.6198,3.6196,3.6194,3.6191,3.616,3.6161,3.6162,3.6216,0,0,3.6165,3.6166,0,0,0,0,0,0,0,0,3.6285,3.6285,3.6269,3.6265,3.6261,3.6237,3.6258,3.6254,3.6199,3.6221,3.6193,3.619,3.6188,3.6187,3.6186,3.6214,3.6213,3.6165,3.6166,3.6166,3.6166,0,0,0,0,0,0,0,3.6286,3.6286,3.6292,3.6269,3.6264,3.6244,3.624,3.6257,3.6218,3.6219,3.6213,3.6211,3.6185,3.6185,3.6185,3.6212,3.6165,3.6166,3.6167,3.6167,3.6279,3.6282,0,0,0,0,0,0,3.6293,3.6287,3.6293,3.6291,3.6267,3.6246,3.6242,3.6247,3.6218,3.6211,3.6213,3.6208,3.6185,3.6184,3.6183,3.6242,3.6166,3.6167,3.6168,3.6277,3.628,3.6282,0,0,0,0,0,0,3.6293,3.6294,3.6294,3.6287,3.6286,3.6249,3.6256,3.6248,3.6248,3.6213,3.6206,3.622,3.6183,3.6182,3.6208,3.624,3.6167,3.6168,3.6274,3.6278,3.6281,3.6362,0,0,0,0,0,0,3.6293,3.6295,3.6316,3.6289,3.6287,3.6321,3.6258,3.6249,3.625,3.6242,3.6218,3.6212,3.6181,3.6207,3.6209,3.624,3.6169,3.6271,3.6276,3.628,3.6357,3.6368,3.6378,0,0,0,0,0,3.6293,3.634,3.6317,3.6318,3.6312,3.6323,3.6321,3.6285,3.6253,3.6273,3.625,3.6213,3.6236,3.621,3.6211,3.6244,3.6269,3.6274,3.628,3.6352,3.6366,3.6378,0,0,0,0,0,0,3.6373,3.6336,3.631,3.635,3.634,3.631,3.6335,3.6302,3.6301,3.6294,3.6248,3.6243,3.6275,3.6261,3.6233,3.6292,3.6246,3.6252,3.63,3.6314,3.6324,3.6327,3.617,0,0,0,0,0,3.6395,3.6407,3.6374,3.6412,3.6409,3.6373,3.6376,3.6348,3.6336,3.6331,3.631,3.6299,3.6303,3.6308,3.631,3.6354,3.6346,3.6376,3.6387,3.6396,3.6403,3.6422,3.6435,3.63,3.63,3.63,0,0,3.6441,3.6423,3.6433,3.6428,3.6417,3.6429,3.637,3.6386,3.6394,3.6333,3.6356,3.634,3.6324,3.6359,3.6373,3.6349,3.6438,3.6403,3.6411,3.6412,3.6429,3.6442,3.6454,3.6304,3.6303,3.6303,0,0,3.6532,3.652,3.6549,3.6539,3.6522,3.6497,3.6505,3.6479,3.6466,3.6488,3.6441,3.645,3.6459,3.6449,3.6445,3.6528,3.6493,3.653,3.6587,3.6607,3.6618,3.6627,3.6656,3.6667,3.6536,3.6536,3.6536,0,3.6592,3.661,3.6569,3.6588,3.6586,3.653,3.6559,3.655,3.6536,3.6535,3.6508,3.6517,3.6502,3.6532,3.6552,3.6551,3.6557,3.6533,3.662,3.6629,3.6636,3.6664,3.6675,3.6541,3.654,3.654,3.6539,0,3.6683,3.6696,3.6722,3.6708,3.6709,3.6733,3.6694,3.6699,3.6671,3.6648,3.667,3.665,3.6646,3.6651,3.6624,3.6677,3.6662,3.6628,3.6581,3.6655,3.6679,3.6689,3.6547,3.6545,3.6544,3.6543,0,0,3.6827,3.6788,3.6798,3.679,3.6766,3.6775,3.6794,3.679,3.6795,3.6786,3.6801,3.6808,3.6775,3.6771,3.6742,3.6759,3.6824,3.6722,3.6721,3.6742,3.688,3.6907,3.6919,3.68,3.6802,3.6804,3.6881,0,3.6912,3.6945,3.6907,3.6947,3.6957,3.6902,3.6919,3.6906,3.6884,3.6889,3.6864,3.687,3.6827,3.6824,3.6838,3.6814,3.6852,3.6807,3.6813,3.6814,3.682,3.6932,3.6961,3.7035,3.6891,3.6892,3.6893,0,3.7016,3.7011,3.7052,3.7023,3.7026,3.7042,3.7034,3.7039,3.7022,3.7004,3.6998,3.6962,3.6977,3.693,3.695,3.6921,3.692,3.6908,3.691,3.691,3.6859,3.6936,3.7058,3.707,3.6908,3.6907,3.6906,0,3.7116,3.7119,3.7144,3.7139,3.7106,3.7118,3.7104,3.7084,3.7083,3.7076,3.7074,3.7069,3.7066,3.7061,3.7024,3.6993,3.7048,3.6998,3.7034,3.7035,3.705,3.705,3.7175,3.7048,3.7048,3.7048,3.7048,0,3.7216,3.7243,3.7188,3.7203,3.7231,3.7186,3.7215,3.7196,3.7177,3.7187,3.7139,3.7148,3.7098,3.7102,3.7072,3.7093,3.7092,3.7078,3.707,3.7083,3.7085,3.7083,3.7077,3.7051,3.705,3.7049,3.7049,0,3.7333,3.7297,3.732,3.7286,3.7278,3.73,3.727,3.7282,3.7256,3.7268,3.7269,3.7228,3.7229,3.7191,3.7185,3.7165,3.7199,3.7181,3.7205,3.72,3.7238,3.7235,3.7367,3.7382,3.7245,3.7247,3.7248,0,3.74,3.742,3.7387,3.7389,3.7378,3.7384,3.7382,3.7337,3.7337,3.7317,3.7331,3.7328,3.7324,3.7329,3.7298,3.7292,3.7275,3.7321,3.7274,3.7285,3.7276,3.7275,3.7277,3.7332,3.7334,3.7335,3.7336,0,3.7522,3.7502,3.7502,3.7495,3.7494,3.7487,3.7476,3.7481,3.7431,3.7433,3.7434,3.7431,3.7424,3.7422,3.741,3.7394,3.7357,3.7351,3.7359,3.7373,3.7387,3.738,3.7233,3.7348,3.7347,3.7346,3.7346,3.7345,3.7616,3.763,3.7609,3.7609,3.7596,3.7586,3.7595,3.7569,3.7569,3.7561,3.7533,3.7538,3.7517,3.7497,3.7485,3.7487,3.7464,3.7476,3.7479,3.7483,3.749,3.7385,3.7485,3.7484,3.7484,3.7483,3.7483,0,3.7735,3.7718,3.7719,3.7705,3.7705,3.7668,3.7653,3.7656,3.7661,3.7644,3.764,3.764,3.7637,3.7605,3.7598,3.7606,3.7588,3.7605,3.7605,3.7602,3.7511,3.7505,3.7619,3.7619,3.7619,3.7619,3.7619,3.7619,3.7798,3.7819,3.7797,3.781,3.7792,3.7797,3.7792,3.7782,3.7768,3.777,3.7767,3.7746,3.7722,3.7712,3.7707,3.7697,3.7697,3.772,3.7705,3.7621,3.7608,3.7596,3.759,3.772,3.7721,3.7796,3.7796,3.7797]}]]